Tracking 25734 objects as of 29-May-2022
HD Live streaming from Space Station
objects crossing your sky now

TRANSIT 5B-1 DEB

Track TRANSIT 5B-1 DEB now!
10-day predictions


NORAD ID: 2097
Int'l Code: 1963-038G
Perigee: 1,000.9 km
Apogee: 1,057.2 km
Inclination: 90.0 °
Period: 105.6 minutes
Semi major axis: 7400 km
RCS: 0.0075 m2 (small)
Launch date: September 28, 1963
Source: United States (US)
Launch site: AIR FORCE WESTERN TEST RANGE (AFWTR)

Note: This is SATELLITE DEBRIS
aabbcc
Your satellite tracking list
Your tracking list is empty




NASA's NSSDC Master Catalog

Two Line Element Set (TLE):
1 02097U 63038G   22148.80831432  .00000599  00000-0  74055-3 0  9991
2 02097  90.0431 335.1065 0038045 259.8510 163.3879 13.63797799897653
Source of the keplerian elements: AFSPC